Terminal Aerodrome Forecast
Issued by NWS Greer, SC

Home | Current Version | Previous Version | Text Only | Print | Product List | Glossary On
Versions: 1 2 3 4 5 6 7 8 9 10 11 12 13 14 15 16 17 18 19 20 21 22 23 24 25 26 27 28 29 30 31 32 33 34 35 36 37 38 39 40 41 42 43 44 45 46 47 48 49 50
000
FTUS42 KGSP 190500
TAFCLT
TAF
KCLT 190526Z 1906/2006 07004KT P6SM SCT035 BKN050
      TEMPO 1906/1908 VRB10G17KT 6SM -TSRA OVC040CB
     FM190900 08004KT 5SM BR BKN025
     FM191300 08005KT P6SM BKN040
     FM192100 08009KT P6SM BKN070
     FM200000 08005KT P6SM BKN080=

USA.gov is the U.S. government's official web portal to all federal, state and local government web resources and services.